Regional Weather Roundup
Issued by NWS

Home | Current Version | Previous Version | Text Only | Print | Product List | Glossary Off
Versions: 1 2 3 4 5 6 7 8 9 10 11 12 13 14 15 16 17 18 19 20 21 22 23 24 25 26 27 28 29 30 31 32 33 34 35 36 37 38 39 40 41 42 43 44 45 46 47 48 49 50

000
ASUS43 KFSD 200010
RWRSD

WEATHER ROUNDUP FOR SOUTH DAKOTA
NATIONAL WEATHER SERVICE SIOUX FALLS SD
700 PM CDT TUE AUG 19 2014

NOTE: "FAIR" INDICATES FEW OR NO CLOUDS BELOW 12,000 FEET WITH NO
SIGNIFICANT WEATHER AND/OR OBSTRUCTIONS TO VISIBILITY.


SDZ001>005-009-010-012>017-200100-
NORTHWEST AND NORTH CENTRAL SOUTH DAKOTA

CITY           SKY/WX    TMP DP  RH WIND       PRES   REMARKS
BUFFALO          N/A     85  53  33 SE16      29.68S
FAITH            N/A     85  56  37 SE12      29.75F
MOBRIDGE       MOSUNNY   83  62  49 E10       29.71F
$$

SDZ012>016-024>037-041>051-057-063-072>074-200100-
SOUTHWEST AND SOUTH CENTRAL SOUTH DAKOTA

CITY           SKY/WX    TMP DP  RH WIND       PRES   REMARKS
RAPID CTY ARPT CLOUDY    81  67  62 N5        29.75F
PIERRE         SUNNY     87  59  38 E12       29.71F
CUSTER         PTSUNNY   79  53  40 SE9       29.91F
ELLSWORTH AFB  CLOUDY    83  59  43 SW2       29.75F
PHILIP         MOSUNNY   88  57  34 E15       29.70F
PINE RIDGE     MOSUNNY   83  56  39 SE12      29.73S THUNDER
WINNER         FAIR      83  63  50 E13       29.76F
$$

SDZ004>011-016>023-039-040-200100-
NORTHEAST SOUTH DAKOTA

CITY           SKY/WX    TMP DP  RH WIND       PRES   REMARKS
ABERDEEN       SUNNY     80  64  58 SE7       29.75S
WATERTOWN      SUNNY     79  60  52 W3        29.78F
SISSETON         N/A     78  68  71 E3        29.74F
$$

SDZ017-020-022-023-036>040-048>070-200100-
SOUTHEAST SOUTH DAKOTA

CITY           SKY/WX    TMP DP  RH WIND       PRES   REMARKS
SIOUX FALLS    MOSUNNY   83  62  49 NW5       29.78F
HURON          SUNNY     83  61  47 E8        29.75S
CHAMBERLAIN    MOSUNNY   82  66  58 E3        29.76S
MITCHELL       SUNNY     82  64  54 E7        29.76S
YANKTON        SUNNY     81  64  57 E5        29.77S
$$

ABBREVIATIONS USED IN REMARKS
   TC - TEMPERATURE IN CELSIUS
  WCI - WIND CHILL INDEX
   HX - HEAT INDEX
  VSB - VISIBILITY



USA.gov is the U.S. government's official web portal to all federal, state and local government web resources and services.